Miscellaneous Local Product
Issued by NWS North Platte, NE

Home | Current Version | Previous Version | Text Only | Print | Product List | Glossary On
Versions: 1 2 3 4 5 6 7 8 9 10 11 12 13 14 15 16 17 18 19 20 21 22 23 24 25 26 27 28 29 30 31 32 33 34 35 36 37 38 39 40 41 42 43 44 45 46 47 48 49 50
000
AXUS43 KLBF 250010
MISLBF


WESTERN AND NORTH CENTRAL NEBRASKA HOURLY WEATHER ROUNDUP
NATIONAL WEATHER SERVICE NORTH PLATTE NE
700 PM CDT FRI MAR 24 2017

NOTE: "FAIR" INDICATES FEW OR NO CLOUDS BELOW 12,000 FEET WITH NO
SIGNIFICANT WEATHER AND/OR OBSTRUCTIONS TO VISIBILITY.

NOTE: STATIONS NOT REPORTING VARIABLES SUCH AS SKY/WEATHER OR
PRESSURE ARE PROVIDED BY RAWS AND APRS NETWORKS AND ARE NOT UNDER
NATIONAL WEATHER SERVICE QUALITY CONTROL.

...OBSERVATIONS IN AND NEAR THE EASTERN PANHANDLE OF NEBRASKA...

CITY           SKY/WX    TMP DP  RH WIND       PRES   REMARKS
PINE RIDGE     MOSUNNY   58  31  35 E12       30.08S
CHADRON        SUNNY     58  28  32 E8        30.07S
ALLIANCE       CLOUDY    53  27  36 NE12      30.09R
SIDNEY         PTSUNNY   53  30  41 NE14G23   30.11R
$$

...OBSERVATIONS IN NORTHERN NEBRASKA AND FAR SOUTHERN SOUTH DAKOTA...

CITY           SKY/WX    TMP DP  RH WIND       PRES   REMARKS
WINNER         FAIR      53  34  48 NE9       30.10R
VALENTINE      PTSUNNY   53  29  39 NE13      30.09R
THEDFORD       PTSUNNY   51  31  46 NE15G22   30.08R
AINSWORTH      CLOUDY    47  35  63 NE10      30.09R
O`NEILL        CLOUDY    44  40  87 N7        30.06R
ORD            HVY RAIN  41  38  89 N6        30.05R FOG
BROKEN BOW     LGT RAIN  42  40  92 NE7       30.06R
VALENTINE NWR    N/A     51  31  46 NE12G20     N/A
HALSEY           N/A     49  33  54 N8G17       N/A
BUTTE            N/A     43  37  78 N12         N/A
CHAMBERS         N/A     42  38  86 N3          N/A
EWING            N/A     42  40  91 NE7         N/A
$$

...OBSERVATIONS IN SOUTHWEST NEBRASKA AND FAR NORTHEAST COLORADO...

CITY           SKY/WX    TMP DP  RH WIND       PRES   REMARKS
HOLYOKE        FAIR      52  39  62 NE10      30.11S
IMPERIAL       LGT RAIN  43  38  82 N12       30.10R
OGALLALA       PTSUNNY   53  35  50 NE9       30.09R
NORTH PLATTE   CLOUDY    46  40  79 N8        30.07S
MCCOOK         CLOUDY    42  40  92 N18G25    30.02F
LEXINGTON      CLOUDY    41  38  90 N15G25    30.01F
STAPLETON        N/A     46  38  73 E3          N/A
GOTHENBURG       N/A     41  39  92 N8          N/A
CALLAWAY         N/A     41  40  96 NE6         N/A
$$

...OBSERVATIONS IN CENTRAL LINCOLN COUNTY AREA...

CITY           SKY/WX    TMP DP  RH WIND       PRES   REMARKS
N.P. AIRPORT   CLOUDY    46  40  79 N8        30.07S
N.P. DOWNTOWN    N/A     45  40  84 NE3         N/A
N.P. SOUTHEAST   N/A     44  40  86 CALM        N/A
N.P. HILLCREST   N/A     46  40  81 NE8G16      N/A
$$

...SOME OBSERVATIONS FROM AROUND THE REGION...

CITY           SKY/WX    TMP DP  RH WIND       PRES   REMARKS
DENVER         MOSUNNY   49  30  48 NE10      30.12S
LIMON          MOSUNNY   43  35  73 N12       30.12S
ASPEN          CLOUDY    48  24  39 N3        30.15R
LARAMIE        SUNNY     49  19  30 N9        30.11S
GILLETTE       SUNNY     58  30  34 S16       29.98F
CHEYENNE       SUNNY     50  20  30 NE13      30.11S
SCOTTSBLUFF    SUNNY     57  27  31 E10       30.09S
GRAND ISLAND   CLOUDY    40  40 100 N16       30.01R WCI  31
OMAHA          LGT RAIN  44  39  82 N16       29.97S
SIOUX FALLS    CLOUDY    40  36  86 NE17G26   30.09R WCI  31
PIERRE         CLEAR     53  32  44 E12       30.09S
RAPID CITY     SUNNY     59  30  33 SE12      30.05S
BISMARCK       CLEAR     43  34  70 E14       30.14F
KANSAS CITY    CLOUDY    61  59  93 SE10      29.83F
HILL CITY      CLOUDY    43  40  89 N14G28    29.98R
WICHITA        LGT RAIN  62  59  90 NE12      29.74R
DODGE CITY     CLOUDY    46  42  86 N23G33    29.91R
OKLAHOMA CITY  LGT RAIN  69  36  29 S24G38    29.69R
DALLAS         PTCLDY    77  56  48 S13       29.74R
AMARILLO       CLOUDY    49  37  63 NW33G41   29.97R
$$




USA.gov is the U.S. government's official web portal to all federal, state and local government web resources and services.